[[{"header":{"parameterUnit":"m.s-1","parameterCategory":1,"la1":30.2991,"la2":30.254,"lo1":-89.0895,"lo2":-89.0444,"dy":0.0017,"dx":0.0017,"nx":28,"ny":28,"refTime":"2025-03-14T03:00:00:Z","depth":0,"parameterNumber":2,"parameterNumberName":"U-component_of_WINDS"},"data":[0,0,0,0,0,0,0,0,0,0,0,0,0,0,0,0,0,0,0,0,0,0,0,0,0,0,0,0,0,0,0,0,0,0,0,0,0,0,0,0,0,0,0,0,0,0,0,0,0,0,0,0,0,0,0,0,0,0,-1.0966,-1.0967,0,-1.1011,-1.1012,-1.1012,-1.1041,-1.1041,-1.1041,-1.1041,-1.1085,-1.1086,-1.1087,0,0,0,0,0,0,0,0,0,0,0,0,0,-1.0902,-1.0903,-1.0966,-1.0967,-1.0967,-1.1011,-1.1012,-1.1012,-1.1041,-1.1041,-1.1041,-1.1042,-1.1085,-1.1086,-1.1087,0,0,0,0,0,0,0,0,0,0,0,0,0,-1.0937,-1.0904,-1.0966,-1.0987,-1.0989,-1.1011,-1.1012,-1.1012,-1.1041,-1.1041,-1.1041,-1.1042,-1.1084,-1.1086,-1.1087,-1.1091,0,0,-1.1092,-1.1093,0,0,0,0,0,0,0,0,-1.0935,-1.0939,-1.0983,-1.0986,-1.0988,-1.1021,-1.1005,-1.1039,-1.1041,-1.1021,-1.1041,-1.1042,-1.1063,-1.1067,-1.1074,-1.1093,-1.1095,-1.1092,-1.1093,-1.1094,-1.1094,0,0,0,0,0,0,0,-1.0932,-1.0937,-1.0984,-1.0984,-1.0987,-1.0993,-1.0998,-1.1012,-1.104,-1.1023,-1.1025,-1.103,-1.1065,-1.1073,-1.1076,-1.1096,-1.1092,-1.1093,-1.1094,-1.1095,-1.1118,-1.1118,0,0,0,0,0,0,-1.0927,-1.0935,-1.0983,-1.0985,-1.0962,-1.0994,-1.1,-1.101,-1.104,-1.1045,-1.103,-1.1031,-1.107,-1.1074,-1.1077,-1.1082,-1.1094,-1.1095,-1.1096,-1.1118,-1.1118,-1.1118,0,0,0,0,0,0,-1.0926,-1.0931,-1.0981,-1.0961,-1.0968,-1.0995,-1.1006,-1.1011,-1.1019,-1.1045,-1.105,-1.1033,-1.1071,-1.1075,-1.1087,-1.1084,-1.1096,-1.1097,-1.1118,-1.1118,-1.1118,-1.1093,0,0,0,0,0,0,-1.0924,-1.093,-1.0933,-1.0961,-1.0969,-1.0991,-1.1006,-1.1011,-1.1022,-1.1024,-1.105,-1.1054,-1.1071,-1.1085,-1.1089,-1.1087,-1.1098,-1.1119,-1.1118,-1.1118,-1.1095,-1.1092,-1.109,0,0,0,0,0,-1.0921,-1.0924,-1.0933,-1.0939,-1.0973,-1.0991,-1.0995,-1.1015,-1.1021,-1.1023,-1.104,-1.1053,-1.1084,-1.1086,-1.109,-1.1089,-1.1119,-1.1118,-1.1118,-1.1096,-1.1093,-1.109,0,0,0,0,0,0,-1.0895,-1.0928,-1.0938,-1.0951,-1.0968,-1.0996,-1.0999,-1.1012,-1.1027,-1.1028,-1.1052,-1.1057,-1.1066,-1.1079,-1.108,-1.1093,-1.1103,-1.1103,-1.1085,-1.1082,-1.108,-1.1076,-1.1099,0,0,0,0,0,-1.0891,-1.0904,-1.0932,-1.094,-1.0948,-1.0972,-1.098,-1.0994,-1.1012,-1.102,-1.1037,-1.1054,-1.1067,-1.1075,-1.1089,-1.1097,-1.1102,-1.1098,-1.1095,-1.1093,-1.1093,-1.1096,-1.1094,-1.1115,-1.1115,-1.1115,0,0,-1.0882,-1.0902,-1.0908,-1.0935,-1.095,-1.0961,-1.0978,-1.099,-1.0998,-1.1021,-1.1034,-1.1047,-1.1067,-1.1076,-1.1081,-1.1087,-1.1089,-1.1093,-1.1091,-1.1092,-1.1096,-1.1094,-1.1092,-1.1115,-1.1115,-1.1115,0,0,-1.0872,-1.0889,-1.0897,-1.0911,-1.0933,-1.0949,-1.095,-1.0976,-1.0986,-1.0999,-1.1016,-1.1026,-1.1049,-1.1062,-1.1071,-1.1064,-1.1076,-1.1068,-1.1056,-1.1059,-1.1057,-1.1056,-1.1052,-1.1051,-1.1068,-1.1068,-1.1067,0,-1.0858,-1.0877,-1.0899,-1.0909,-1.092,-1.0942,-1.0949,-1.0961,-1.0987,-1.0993,-1.0999,-1.1027,-1.1042,-1.1054,-1.1052,-1.1059,-1.1061,-1.1065,-1.1056,-1.1055,-1.1054,-1.105,-1.1049,-1.1066,-1.1066,-1.1067,-1.1067,0,-1.0858,-1.0871,-1.0874,-1.0898,-1.0909,-1.0918,-1.094,-1.0948,-1.096,-1.0975,-1.0986,-1.1005,-1.1022,-1.1026,-1.1039,-1.1039,-1.1042,-1.1052,-1.1062,-1.105,-1.1047,-1.1046,-1.1065,-1.1065,-1.1065,-1.1066,0,0,-1.0834,-1.0868,-1.0869,-1.088,-1.0905,-1.0915,-1.0924,-1.0941,-1.0947,-1.0963,-1.097,-1.0988,-1.0997,-1.1008,-1.1021,-1.1024,-1.1015,-1.1033,-1.1034,-1.1028,-1.1016,-1.1007,-1.1006,-1.1024,-1.1024,-1.1023,-1.1013,0,-1.0827,-1.0845,-1.0864,-1.0875,-1.0886,-1.0906,-1.0913,-1.0929,-1.0942,-1.0953,-1.0967,-1.0979,-1.0991,-1.0997,-1.1,-1.1016,-1.1013,-1.1017,-1.1029,-1.1029,-1.1023,-1.1004,-1.0996,-1.0986,-1.1013,-1.1012,-1.1012,0,-1.0821,-1.0836,-1.0848,-1.0871,-1.0876,-1.0883,-1.0899,-1.0909,-1.0927,-1.0936,-1.0947,-1.0962,-1.0971,-1.098,-1.0992,-1.0994,-1.1,-1.1008,-1.1008,-1.101,-1.102,-1.1004,-1.0983,-1.0981,-1.1011,-1.1011,-1.1011,0,-1.0801,-1.0824,-1.0834,-1.0842,-1.0869,-1.0873,-1.0884,-1.0902,-1.091,-1.0924,-1.093,-1.0945,-1.0952,-1.0963,-1.098,-1.0986,-1.0989,-1.1001,-1.0996,-1.0996,-1.0996,-1.0996,-1.0975,-1.1001,-1.1001,-1.1001,-1.1001,0,-1.079,-1.0797,-1.0825,-1.0831,-1.0837,-1.0858,-1.0864,-1.0877,-1.0893,-1.09,-1.0919,-1.0925,-1.0948,-1.0957,-1.0971,-1.0978,-1.0981,-1.0988,-1.0992,-1.0986,-1.0985,-1.099,-1.0991,-1.1001,-1.1001,-1.1001,-1.1001,0,-1.0769,-1.0788,-1.08,-1.0824,-1.083,-1.0834,-1.0854,-1.086,-1.0874,-1.0883,-1.0887,-1.0909,-1.092,-1.0938,-1.0955,-1.0964,-1.0968,-1.0975,-1.0962,-1.0964,-1.0958,-1.0958,-1.0939,-1.0937,-1.0966,-1.0966,-1.0965,0,-1.0761,-1.0766,-1.079,-1.0797,-1.0808,-1.0818,-1.0827,-1.0847,-1.0855,-1.0874,-1.0877,-1.089,-1.0901,-1.0918,-1.0935,-1.0947,-1.0953,-1.0946,-1.0955,-1.0949,-1.0952,-1.0951,-1.0951,-1.0943,-1.0943,-1.0943,-1.0942,0,-1.0744,-1.0753,-1.0765,-1.078,-1.0789,-1.0802,-1.0815,-1.0819,-1.0842,-1.085,-1.0862,-1.087,-1.0887,-1.0899,-1.0913,-1.0924,-1.0936,-1.0939,-1.0939,-1.0933,-1.0925,-1.0928,-1.0955,-1.094,-1.094,-1.094,-1.094,-1.094,-1.0729,-1.0733,-1.0751,-1.0763,-1.0775,-1.0786,-1.0792,-1.0807,-1.0817,-1.0833,-1.0844,-1.0854,-1.087,-1.089,-1.09,-1.0908,-1.0914,-1.0913,-1.0913,-1.0912,-1.0909,-1.0924,-1.0911,-1.0911,-1.0911,-1.0911,-1.0911,0,-1.0712,-1.0724,-1.0735,-1.0752,-1.0761,-1.0772,-1.0787,-1.0794,-1.0803,-1.0817,-1.0827,-1.0839,-1.0851,-1.0868,-1.088,-1.0883,-1.0888,-1.0885,-1.0885,-1.0886,-1.0904,-1.0903,-1.088,-1.088,-1.088,-1.088,-1.088,-1.088,-1.0704,-1.0712,-1.0723,-1.0736,-1.0748,-1.0759,-1.0766,-1.0776,-1.0787,-1.08,-1.0809,-1.082,-1.0835,-1.0848,-1.0858,-1.0863,-1.0866,-1.086,-1.0866,-1.0883,-1.0885,-1.0888,-1.0887,-1.0861,-1.0861,-1.0848,-1.0847,-1.0847]},{"header":{"parameterUnit":"m.s-1","parameterCategory":1,"la1":30.2991,"la2":30.254,"lo1":-89.0895,"lo2":-89.0444,"dy":0.0017,"dx":0.0017,"nx":28,"ny":28,"refTime":"2025-03-14T03:00:00:Z","depth":0,"parameterNumber":3,"parameterNumberName":"V-component_of_WINDS"},"data":[0,0,0,0,0,0,0,0,0,0,0,0,0,0,0,0,0,0,0,0,0,0,0,0,0,0,0,0,0,0,0,0,0,0,0,0,0,0,0,0,0,0,0,0,0,0,0,0,0,0,0,0,0,0,0,0,0,0,2.9019,2.902,0,2.9148,2.9149,2.9151,2.9195,2.9195,2.9194,2.9194,2.9329,2.9333,2.9337,0,0,0,0,0,0,0,0,0,0,0,0,0,2.8816,2.8819,2.9019,2.902,2.9022,2.9148,2.9149,2.9151,2.9196,2.9195,2.9194,2.9194,2.9328,2.9333,2.9337,0,0,0,0,0,0,0,0,0,0,0,0,0,2.892,2.882,2.9019,2.9059,2.9064,2.9147,2.9149,2.9152,2.9196,2.9195,2.9194,2.9193,2.9326,2.9332,2.9338,2.9391,0,0,2.9357,2.9359,0,0,0,0,0,0,0,0,2.8914,2.8928,2.9052,2.9057,2.9062,2.9155,2.9127,2.9232,2.9196,2.9146,2.9194,2.9193,2.9272,2.9282,2.9308,2.9397,2.9403,2.9357,2.9361,2.9364,2.9365,0,0,0,0,0,0,0,2.8907,2.8922,2.907,2.9053,2.906,2.9073,2.9087,2.9147,2.9212,2.915,2.9154,2.9168,2.9275,2.9302,2.9312,2.9405,2.9357,2.9363,2.9366,2.9369,2.9547,2.9548,0,0,0,0,0,0,2.8892,2.8916,2.9066,2.9074,2.8985,2.9077,2.9093,2.9126,2.9211,2.9223,2.9169,2.917,2.9292,2.9305,2.9317,2.9386,2.9364,2.9369,2.9373,2.9546,2.9547,2.9548,0,0,0,0,0,0,2.8888,2.8905,2.9061,2.8996,2.9017,2.9081,2.9118,2.9129,2.9156,2.9225,2.9237,2.9185,2.9292,2.9308,2.9373,2.9391,2.9372,2.9378,2.9545,2.9546,2.9548,2.9524,0,0,0,0,0,0,2.8882,2.8903,2.8923,2.8996,2.902,2.9113,2.9119,2.9132,2.9167,2.9169,2.9243,2.9255,2.9293,2.9363,2.9379,2.94,2.9382,2.9543,2.9545,2.9547,2.9523,2.9525,2.9526,0,0,0,0,0,2.8874,2.8911,2.8924,2.8941,2.9046,2.9114,2.9128,2.9169,2.9168,2.9189,2.9233,2.9253,2.9387,2.9369,2.9387,2.941,2.9542,2.9545,2.9547,2.9523,2.9524,2.9526,0,0,0,0,0,0,2.8839,2.8922,2.8936,2.8997,2.9048,2.9121,2.9149,2.9169,2.9222,2.9223,2.9273,2.929,2.9351,2.9387,2.9366,2.9467,2.9466,2.9472,2.9441,2.9443,2.9444,2.9435,2.9387,0,0,0,0,0,2.8839,2.8886,2.8956,2.9003,2.9028,2.9084,2.9115,2.9143,2.9198,2.922,2.9269,2.9323,2.9378,2.9412,2.9466,2.9529,2.9547,2.9554,2.9555,2.9555,2.956,2.9599,2.9603,2.9556,2.9556,2.9556,0,0,2.8838,2.8889,2.8915,2.8997,2.904,2.909,2.9102,2.9153,2.9191,2.9228,2.9292,2.933,2.9394,2.9458,2.9489,2.949,2.9577,2.9558,2.9558,2.9563,2.9602,2.9606,2.961,2.9558,2.9558,2.9557,0,0,2.8862,2.8904,2.895,2.8992,2.9056,2.9094,2.9104,2.9175,2.9201,2.9266,2.9296,2.9342,2.9434,2.9479,2.9514,2.9557,2.9578,2.9573,2.9579,2.9616,2.962,2.9624,2.9641,2.9646,2.9578,2.9578,2.9578,0,2.8854,2.8928,2.897,2.9021,2.9057,2.9092,2.914,2.9179,2.9258,2.9283,2.9283,2.9401,2.9446,2.9523,2.9533,2.956,2.9575,2.9565,2.9616,2.962,2.9624,2.9641,2.9647,2.9577,2.9577,2.9577,2.9577,0,2.8915,2.8967,2.8996,2.907,2.911,2.9158,2.921,2.9245,2.927,2.9308,2.9375,2.943,2.9497,2.9517,2.9542,2.9598,2.9597,2.9605,2.9605,2.9627,2.9644,2.9651,2.9576,2.9576,2.9576,2.9577,0,0,2.8921,2.9019,2.9029,2.9065,2.9139,2.918,2.9231,2.9296,2.9326,2.9379,2.9425,2.9503,2.9512,2.9552,2.9582,2.9614,2.9647,2.9619,2.9622,2.9624,2.9715,2.9709,2.9716,2.9661,2.9662,2.9664,2.9711,0,2.8957,2.9048,2.9088,2.9162,2.9212,2.9247,2.9292,2.9343,2.938,2.9429,2.9471,2.9526,2.9532,2.9557,2.959,2.9636,2.9667,2.9633,2.9706,2.9708,2.969,2.9725,2.9718,2.976,2.9717,2.9718,2.9719,0,2.901,2.9063,2.9141,2.9211,2.9234,2.9273,2.9337,2.9382,2.9442,2.9467,2.9511,2.9541,2.9598,2.9593,2.9674,2.965,2.9683,2.971,2.9713,2.9722,2.9716,2.9737,2.9774,2.978,2.973,2.9729,2.9728,0,2.9008,2.91,2.9159,2.9188,2.927,2.9298,2.9333,2.9392,2.9429,2.9485,2.951,2.9572,2.9607,2.9655,2.9701,2.9693,2.9779,2.9777,2.9803,2.9802,2.982,2.9818,2.9864,2.9838,2.9838,2.9838,2.9838,0,2.9044,2.9092,2.916,2.9196,2.9251,2.9298,2.9351,2.939,2.9443,2.9489,2.9523,2.9566,2.9624,2.9675,2.9712,2.9774,2.9789,2.9813,2.9822,2.9811,2.9808,2.9833,2.9832,2.984,2.9839,2.9839,2.9839,0,2.9052,2.9099,2.9167,2.9239,2.9259,2.9296,2.9359,2.9398,2.9436,2.9495,2.9511,2.9573,2.9635,2.9686,2.9767,2.9792,2.9858,2.9868,2.9838,2.9843,2.9867,2.9864,2.9932,2.9944,2.9908,2.9908,2.9908,0,2.9073,2.911,2.9186,2.9219,2.9255,2.9307,2.9345,2.9393,2.9432,2.9503,2.9533,2.9598,2.9652,2.975,2.9803,2.9866,2.9879,2.9898,2.9889,2.9877,2.9882,2.988,2.9885,2.99,2.99,2.99,2.99,0,2.9105,2.9127,2.9179,2.924,2.9284,2.9335,2.9386,2.9412,2.947,2.9512,2.9575,2.9617,2.97,2.9765,2.9834,2.9873,2.9897,2.9902,2.9912,2.9901,2.9883,2.9895,2.9842,2.9901,2.9901,2.9901,2.9901,2.9901,2.9121,2.9157,2.9216,2.9274,2.9318,2.9366,2.9405,2.9449,2.9503,2.9574,2.9599,2.9665,2.9726,2.9821,2.9861,2.9915,2.9917,2.993,2.9934,2.9937,2.9937,2.9873,2.9927,2.9927,2.9927,2.9927,2.9927,0,2.9157,2.9197,2.9249,2.932,2.9367,2.9384,2.9442,2.948,2.9537,2.9592,2.9644,2.9718,2.9781,2.984,2.9906,2.9938,2.9951,2.9954,2.9953,2.9962,2.993,2.9915,2.9943,2.9943,2.9943,2.9943,2.9943,2.9942,2.9181,2.9242,2.9271,2.9355,2.9396,2.946,2.9492,2.9537,2.9581,2.9662,2.9714,2.9751,2.9808,2.9879,2.9939,2.9954,2.9978,2.9979,2.9997,2.9966,2.9964,2.9962,2.9949,2.9983,2.9983,3.0026,3.0026,3.0027]}]]